SCP
0 1 0 0 0 0 0 0 0 0 0 0 0 0 0 0 0 0 0 0 0 1 0 1 1 1 1 0 0 1 0 0 0 0 0 0 0 0 0 0 1 0 0
0 0 1 0 0 0 0 0 1 1 0 1 1 0 1 0 0 0 0 0 1 1 0 0 0 1 0 1 1 1 0 0 0 0 0 0 0 0 0 0 0 0 0
0 0 0 0 0 -0 0 0 1 0 0 0 1 1 1 1 0 1 1 0 0 0 0 0 0 0 0 0 0 0 0 0 0 0 0 0 0 0 -0 0 0 1 1
0 0 0 0 0 0 0 1 0 0 0 0 1 2 1 0 0 1 1 0 0 0 0 0 0 0 0 0 0 0 0 0 0 0 0 0 0 0 0 0 0 0 1
0 -0 -0 0 1 1 1 0 0 0 1 1 0 1 1 1 1 0 0 0 0 0 0 0 0 0 0 0 0 0 0 0 0 0 0 0 -0 0 -0 -0 0 0 0
0 0 0 0 0 0 -0 1 1 1 1 1 0 1 1 1 1 1 1 0 0 0 0 0 0 0 0 0 0 0 0 0 0 0 0 0 0 -0 0 -0 -0 0 0
0 0 0 -0 -0 -0 1 1 1 0 1 0 0 0 2 2 1 0 0 0 0 0 0 0 0 0 0 0 0 0 0 0 0 0 0 0 0 0 -0 -0 -0 0 0
0 0 -0 0 0 1 0 1 1 1 0 1 0 0 1 1 1 1 1 0 0 0 0 0 0 0 0 0 0 0 0 0 0 0 0 0 0 0 0 0 0 -0 0
0 0 0 1 1 0 0 1 0 0 1 1 1 0 0 0 0 1 1 1 0 0 0 0 0 0 0 0 0 0 0 0 0 0 0 -0 0 0 0 0 0 -0 0
0 0 0 0 0 1 0 0 0 1 1 1 0 0 0 0 0 0 1 2 1 0 0 0 0 0 0 0 0 0 0 0 0 0 -0 -0 0 0 0 0 0 -0 -0
0 0 0 0 0 0 0 1 0 0 1 1 1 0 0 0 1 0 0 0 1 0 0 0 0 0 0 0 0 0 0 0 -0 0 -0 -0 -0 0 0 -0 -0 -0 -0
0 0 0 0 0 0 0 0 1 1 1 1 0 0 0 0 0 0 0 0 0 0 0 0 0 0 0 0 0 0 0 0 -0 -0 -0 -0 -0 -0 -0 0 0 0 0
0 1 0 0 0 0 0 0 1 1 1 0 0 0 0 0 0 0 0 0 0 0 0 0 0 0 0 0 0 0 0 0 0 -0 -0 -0 -0 -0 -0 0 0 0 0
0 0 0 0 0 0 0 0 1 1 1 0 0 0 0 0 0 0 0 0 0 0 1 1 0 0 0 0 0 0 0 0 0 -0 -0 -0 -0 -0 -0 0 0 0 0
0 0 0 0 0 0 0 0 1 1 1 1 0 0 0 0 0 0 0 0 0 0 0 0 0 0 0 0 0 0 0 0 0 -0 -0 -0 -0 -0 -0 0 0 0 0
0 0 1 0 0 0 1 1 1 1 1 1 0 0 0 0 0 0 0 0 0 0 0 0 0 0 0 0 0 0 0 0 0 -0 -0 -0 -0 -0 -0 0 -0 0 0
0 1 0 0 0 0 0 1 1 1 1 1 0 0 0 0 0 0 0 0 0 0 0 0 0 0 0 0 0 0 0 0 0 -0 -0 -0 -0 -0 -0 -0 0 0 0
0 1 1 0 0 0 0 1 1 1 1 1 0 0 0 0 0 0 0 0 0 0 0 0 0 0 0 0 0 0 0 0 0 -0 -0 -0 -0 0 0 0 0 0 0
1 1 1 1 1 1 0 1 1 1 1 0 0 0 0 0 0 0 0 0 0 0 0 0 0 0 0 0 0 0 0 0 0 -0 -0 -0 -0 0 0 -0 -0 -0 0
1 1 1 1 1 1 1 1 1 1 1 0 0 0 0 0 0 0 0 0 0 0 0 0 0 0 0 0 0 0 0 0 0 -0 -0 -0 0 0 0 0 0 -0 0
1 1 1 1 1 1 0 1 1 1 0 0 0 0 0 0 0 0 0 0 0 0 0 0 0 0 0 0 0 0 0 0 0 0 0 0 0 0 0 0 0 0 0
1 1 1 1 1 0 0 1 1 0 0 0 0 0 0 0 0 0 0 0 0 0 0 0 0 0 0 0 0 0 0 0 0 0 0 0 0 0 0 0 0 0 0
2 2 2 1 1 0 0 1 1 0 0 0 0 0 0 0 0 0 0 0 0 0 0 0 0 0 0 0 0 0 0 0 0 0 0 0 0 0 0 0 0 0 0
2 2 2 2 1 1 1 1 0 0 0 0 0 0 0 0 0 0 0 0 0 0 0 0 0 0 0 0 0 0 0 0 0 0 0 0 0 0 0 0 0 0 0
3 2 2 2 1 1 0 0 0 0 0 0 0 0 0 0 0 0 0 0 0 0 0 0 0 0 0 0 0 0 0 0 0 0 0 0 0 0 0 0 0 0 0
2 2 2 2 1 1 0 0 0 1 0 0 0 0 0 0 0 0 0 0 0 0 0 0 0 0 0 0 0 0 0 0 0 0 -0 -0 0 0 0 0 0 0 0
Wind_Speed_500mb
6 1 19 21 20 23 16 18 21 15 23 10 16 6 17 12 18 17 20 22 23 24 31 23 12 14 19 22 24 28 28 29 37 37 38 38 40 71 73 55 54 57 57
14 14 19 24 13 12 13 16 27 21 27 19 5 14 16 19 18 23 22 25 23 21 28 21 7 7 9 9 9 13 14 20 27 28 37 32 37 56 57 77 82 66 62
12 15 15 19 22 7 17 29 28 31 27 25 9 11 21 19 13 9 12 19 24 26 26 16 17 15 15 16 12 5 4 7 14 19 25 32 36 35 57 64 68 73 65
24 11 21 15 9 13 13 23 25 18 28 9 19 5 16 17 15 12 14 22 23 20 21 12 18 18 22 22 21 19 14 12 13 16 21 28 25 32 33 49 70 72 64
16 19 19 26 26 29 17 33 21 21 15 23 30 9 7 15 11 6 11 8 13 19 17 17 16 21 18 21 26 23 26 22 19 18 18 22 27 26 35 41 54 69 64
15 22 27 20 19 25 26 24 21 25 33 15 20 9 1 8 3 5 6 2 9 12 12 16 19 21 25 24 25 37 34 26 24 22 21 20 22 27 34 35 34 50 56
9 19 15 24 28 21 18 23 30 18 31 29 23 15 18 8 7 4 7 10 10 9 11 7 8 21 30 25 37 41 51 33 21 21 15 22 25 27 34 37 46 52 50
5 10 16 15 22 27 25 28 27 19 18 27 33 29 12 9 5 6 9 5 9 4 7 4 23 20 16 25 35 44 50 39 27 18 17 14 24 28 34 39 44 50 55
4 10 11 19 20 19 29 25 23 19 19 29 29 25 17 16 27 17 19 7 11 9 5 16 23 22 25 19 31 34 50 42 30 23 20 14 15 20 29 40 40 46 61
4 1 12 17 16 20 27 20 21 17 21 18 16 20 25 26 14 19 28 26 26 5 10 7 6 18 17 27 31 36 48 35 31 24 15 13 17 18 22 31 29 37 56
5 6 10 15 18 19 24 23 20 22 21 20 11 21 16 12 13 23 34 32 33 16 6 5 7 8 21 32 32 41 41 28 32 29 16 10 15 18 20 25 32 38 55
7 14 4 13 10 23 26 25 19 23 26 29 16 9 16 17 24 24 29 33 31 18 19 8 6 8 16 18 30 32 30 28 33 28 19 11 15 15 17 25 35 46 52
18 15 4 14 10 22 22 31 20 20 26 30 25 15 9 16 17 19 23 30 30 28 2 2 6 3 6 19 31 38 32 25 30 31 23 13 14 15 18 21 31 23 53
15 13 16 8 6 13 24 26 19 25 24 26 26 21 11 18 15 14 18 25 29 29 22 13 14 7 12 27 37 37 23 20 27 33 27 13 15 17 21 20 27 28 58
8 15 20 3 7 8 16 29 19 25 25 22 26 24 5 10 18 20 14 17 22 23 25 11 7 12 28 28 26 20 20 18 23 30 35 16 15 22 29 31 16 47 78
25 22 13 9 8 7 23 25 21 26 24 18 25 24 17 8 3 10 14 11 13 16 18 26 11 16 23 21 14 11 15 22 22 29 31 25 17 20 33 26 50 45 42
30 27 30 24 16 12 9 23 25 23 20 24 25 25 22 17 14 14 14 17 21 24 13 23 17 17 25 19 8 7 10 20 18 24 28 29 17 23 30 39 26 41 40
37 39 32 22 20 16 13 21 22 26 24 22 27 25 18 13 10 12 10 13 16 20 26 15 10 23 17 21 11 5 7 14 17 21 26 26 24 21 26 38 38 32 42
33 34 29 22 22 19 19 13 27 21 24 20 25 23 19 15 12 20 23 23 21 21 17 15 22 26 24 24 11 8 9 11 15 18 21 22 25 23 29 30 41 47 52
35 34 33 30 26 22 21 9 30 27 26 21 23 20 13 14 15 12 19 20 19 15 27 21 23 19 14 22 17 11 13 12 15 17 14 23 22 26 25 31 36 39 46
38 35 34 33 33 31 23 17 31 34 32 28 18 18 12 9 8 7 17 24 28 24 18 22 22 20 23 13 16 8 16 15 19 16 19 19 19 23 28 30 34 40 39
39 36 35 34 34 30 19 25 38 40 36 31 19 16 17 8 8 12 18 25 33 33 25 19 17 18 19 7 11 9 13 10 17 13 14 16 20 17 23 29 30 38 42
41 39 37 35 32 32 30 29 27 33 37 27 19 12 10 5 7 11 20 26 37 43 39 43 33 30 21 16 10 9 9 6 20 20 13 26 20 18 19 29 34 28 36
46 41 39 35 33 32 35 31 30 33 36 27 18 8 13 18 10 12 15 19 28 35 35 40 40 33 22 16 11 9 11 10 24 22 22 25 17 20 20 25 40 37 43
46 44 39 36 32 34 36 38 36 34 37 27 18 12 14 14 6 6 11 7 19 31 24 33 34 37 31 18 15 15 13 14 18 18 13 24 23 28 25 24 38 34 49
43 41 36 34 30 30 36 36 36 35 36 27 20 18 19 12 7 8 9 17 2 21 23 23 30 33 37 24 18 16 15 15 8 12 14 17 25 30 23 24 26 40 40
Wind_Direction_500mb
54 334 66 63 37 38 37 357 30 354 337 356 353 341 345 48 19 23 354 347 341 347 351 343 310 281 279 278 274 267 267 262 259 274 240 250 239 239 235 227 228 229 220
20 39 30 8 42 335 358 10 341 353 336 324 358 11 3 347 359 334 348 354 343 350 6 354 6 12 4 354 297 280 267 262 271 268 256 255 239 253 242 231 229 222 220
71 15 14 39 5 355 26 10 6 352 7 9 7 21 17 31 37 351 351 2 359 11 19 44 53 41 21 5 15 10 321 279 268 264 256 250 239 253 220 224 212 212 213
354 29 4 353 351 20 21 10 356 345 355 3 298 353 39 47 58 63 32 4 348 349 359 15 22 19 5 357 354 353 341 314 282 277 254 250 248 233 234 234 228 205 206
334 325 94 30 20 12 20 349 355 348 333 357 347 268 50 65 84 289 324 347 305 352 350 352 353 352 358 354 347 332 320 297 288 287 272 257 252 247 234 229 233 210 209
321 359 21 11 7 353 339 339 4 352 352 3 342 263 243 86 244 124 80 1 114 348 344 355 349 345 348 354 358 347 345 314 284 274 282 268 258 249 235 226 219 215 212
356 4 12 7 357 343 6 9 1 3 20 348 348 343 266 157 153 216 177 238 313 205 254 328 9 345 342 333 345 345 348 339 309 255 280 264 257 242 235 229 225 222 212
10 3 0 359 20 3 358 358 5 16 24 358 2 359 17 188 73 231 269 265 341 62 265 340 334 8 351 316 330 343 347 343 326 279 242 279 263 242 235 230 229 222 226
34 326 349 349 30 16 350 350 355 6 21 23 23 22 7 0 353 2 315 216 293 156 251 332 320 354 326 309 332 338 343 343 330 320 260 265 296 257 245 232 230 233 237
278 308 347 342 29 21 348 4 11 32 13 13 4 22 4 344 323 336 343 306 314 226 221 332 288 342 311 305 319 339 340 345 343 335 306 293 298 279 248 238 232 251 230
94 129 317 350 6 347 357 4 4 26 14 18 21 34 355 356 8 351 347 348 342 266 265 63 229 265 289 302 320 340 342 350 345 341 323 299 288 290 275 251 249 276 217
207 201 286 8 346 352 351 356 8 12 15 9 20 39 1 350 333 352 344 344 341 342 283 258 251 267 307 305 337 339 1 356 349 338 333 285 303 323 307 272 269 257 208
222 224 353 335 339 360 340 347 2 2 356 7 11 18 19 353 358 357 353 347 342 347 283 307 230 49 306 330 334 343 353 8 6 357 353 338 344 340 327 282 307 201 197
268 261 290 323 342 327 331 344 342 351 356 359 8 18 44 345 342 4 359 350 348 354 5 92 114 55 353 342 332 329 4 10 18 13 13 13 5 10 356 300 316 185 198
236 281 276 243 304 335 317 327 336 352 354 354 349 357 36 314 22 353 5 358 354 351 348 53 102 19 355 336 323 348 20 35 21 18 21 29 32 32 29 32 354 149 144
237 251 223 243 277 299 317 326 338 326 335 333 334 349 357 15 6 341 2 11 335 336 352 13 24 357 355 330 315 356 32 50 26 29 26 36 49 56 49 60 71 137 131
211 241 250 251 253 281 314 308 323 317 329 328 335 345 354 18 23 41 1 8 7 20 17 8 28 22 359 15 20 31 67 33 21 22 28 42 67 75 67 75 88 71 82
232 236 256 256 253 261 274 298 311 301 323 323 329 338 352 20 22 14 358 35 11 20 20 1 19 16 14 15 40 121 100 17 31 29 38 51 69 89 99 83 90 96 101
245 246 254 260 256 258 278 271 289 290 314 303 321 330 344 3 11 26 26 23 41 31 9 359 57 34 34 24 57 90 56 16 50 40 41 54 72 100 110 111 104 105 121
252 251 247 243 261 265 274 255 277 303 313 302 321 326 337 356 19 39 19 15 27 50 49 35 39 35 40 42 46 46 55 49 49 38 56 69 80 98 124 126 129 123 119
252 254 254 244 244 254 265 254 276 298 315 306 312 308 341 345 20 31 11 28 29 33 87 42 33 18 51 62 36 115 51 61 72 75 78 82 79 103 125 142 137 145 143
251 254 257 250 246 251 250 252 265 279 295 307 297 309 304 318 18 27 31 34 38 46 54 38 34 38 30 86 43 65 58 63 88 86 90 84 83 94 108 138 143 149 155
247 249 254 258 253 243 238 246 261 274 288 299 293 306 304 57 23 36 36 32 44 42 43 33 39 40 44 64 72 42 32 86 128 124 114 84 96 97 100 130 137 139 151
241 242 250 254 254 242 236 243 256 272 282 286 284 266 231 255 328 49 39 355 33 35 40 35 36 35 45 68 64 52 51 61 132 124 124 100 105 104 100 125 145 140 146
235 241 246 250 254 241 233 239 246 264 276 275 263 246 267 253 270 128 128 13 4 21 34 33 40 32 33 49 76 66 53 51 142 139 142 135 133 127 113 122 153 145 150
238 237 241 239 253 249 241 237 240 253 268 263 249 234 250 241 229 185 144 90 245 49 36 34 31 27 27 51 69 55 54 66 133 154 156 148 146 138 113 118 147 163 152
Wind_Speed_850mb
6 1 19 21 20 23 16 18 21 15 23 10 16 6 17 12 18 17 20 22 23 24 31 23 12 14 19 22 24 28 28 29 37 37 38 38 40 71 73 55 54 57 57
14 14 19 24 13 12 13 16 27 21 27 19 5 14 16 19 18 23 22 25 23 21 28 21 7 7 9 9 9 13 14 20 27 28 37 32 37 56 57 77 82 66 62
12 15 15 19 22 7 17 29 28 31 27 25 9 11 21 19 13 9 12 19 24 26 26 16 17 15 15 16 12 5 4 7 14 19 25 32 36 35 57 64 68 73 65
24 11 21 15 9 13 13 23 25 18 28 9 19 5 16 17 15 12 14 22 23 20 21 12 18 18 22 22 21 19 14 12 13 16 21 28 25 32 33 49 70 72 64
16 19 19 26 26 29 17 33 21 21 15 23 30 9 7 15 11 6 11 8 13 19 17 17 16 21 18 21 26 23 26 22 19 18 18 22 27 26 35 41 54 69 64
15 22 27 20 19 25 26 24 21 25 33 15 20 9 1 8 3 5 6 2 9 12 12 16 19 21 25 24 25 37 34 26 24 22 21 20 22 27 34 35 34 50 56
9 19 15 24 28 21 18 23 30 18 31 29 23 15 18 8 7 4 7 10 10 9 11 7 8 21 30 25 37 41 51 33 21 21 15 22 25 27 34 37 46 52 50
5 10 16 15 22 27 25 28 27 19 18 27 33 29 12 9 5 6 9 5 9 4 7 4 23 20 16 25 35 44 50 39 27 18 17 14 24 28 34 39 44 50 55
4 10 11 19 20 19 29 25 23 19 19 29 29 25 17 16 27 17 19 7 11 9 5 16 23 22 25 19 31 34 50 42 30 23 20 14 15 20 29 40 40 46 61
4 1 12 17 16 20 27 20 21 17 21 18 16 20 25 26 14 19 28 26 26 5 10 7 6 18 17 27 31 36 48 35 31 24 15 13 17 18 22 31 29 37 56
5 6 10 15 18 19 24 23 20 22 21 20 11 21 16 12 13 23 34 32 33 16 6 5 7 8 21 32 32 41 41 28 32 29 16 10 15 18 20 25 32 38 55
7 14 4 13 10 23 26 25 19 23 26 29 16 9 16 17 24 24 29 33 31 18 19 8 6 8 16 18 30 32 30 28 33 28 19 11 15 15 17 25 35 46 52
18 15 4 14 10 22 22 31 20 20 26 30 25 15 9 16 17 19 23 30 30 28 2 2 6 3 6 19 31 38 32 25 30 31 23 13 14 15 18 21 31 23 53
15 13 16 8 6 13 24 26 19 25 24 26 26 21 11 18 15 14 18 25 29 29 22 13 14 7 12 27 37 37 23 20 27 33 27 13 15 17 21 20 27 28 58
8 15 20 3 7 8 16 29 19 25 25 22 26 24 5 10 18 20 14 17 22 23 25 11 7 12 28 28 26 20 20 18 23 30 35 16 15 22 29 31 16 47 78
25 22 13 9 8 7 23 25 21 26 24 18 25 24 17 8 3 10 14 11 13 16 18 26 11 16 23 21 14 11 15 22 22 29 31 25 17 20 33 26 50 45 42
30 27 30 24 16 12 9 23 25 23 20 24 25 25 22 17 14 14 14 17 21 24 13 23 17 17 25 19 8 7 10 20 18 24 28 29 17 23 30 39 26 41 40
37 39 32 22 20 16 13 21 22 26 24 22 27 25 18 13 10 12 10 13 16 20 26 15 10 23 17 21 11 5 7 14 17 21 26 26 24 21 26 38 38 32 42
33 34 29 22 22 19 19 13 27 21 24 20 25 23 19 15 12 20 23 23 21 21 17 15 22 26 24 24 11 8 9 11 15 18 21 22 25 23 29 30 41 47 52
35 34 33 30 26 22 21 9 30 27 26 21 23 20 13 14 15 12 19 20 19 15 27 21 23 19 14 22 17 11 13 12 15 17 14 23 22 26 25 31 36 39 46
38 35 34 33 33 31 23 17 31 34 32 28 18 18 12 9 8 7 17 24 28 24 18 22 22 20 23 13 16 8 16 15 19 16 19 19 19 23 28 30 34 40 39
39 36 35 34 34 30 19 25 38 40 36 31 19 16 17 8 8 12 18 25 33 33 25 19 17 18 19 7 11 9 13 10 17 13 14 16 20 17 23 29 30 38 42
41 39 37 35 32 32 30 29 27 33 37 27 19 12 10 5 7 11 20 26 37 43 39 43 33 30 21 16 10 9 9 6 20 20 13 26 20 18 19 29 34 28 36
46 41 39 35 33 32 35 31 30 33 36 27 18 8 13 18 10 12 15 19 28 35 35 40 40 33 22 16 11 9 11 10 24 22 22 25 17 20 20 25 40 37 43
46 44 39 36 32 34 36 38 36 34 37 27 18 12 14 14 6 6 11 7 19 31 24 33 34 37 31 18 15 15 13 14 18 18 13 24 23 28 25 24 38 34 49
43 41 36 34 30 30 36 36 36 35 36 27 20 18 19 12 7 8 9 17 2 21 23 23 30 33 37 24 18 16 15 15 8 12 14 17 25 30 23 24 26 40 40
Wind_Direction_850mb
54 334 66 63 37 38 37 357 30 354 337 356 353 341 345 48 19 23 354 347 341 347 351 343 310 281 279 278 274 267 267 262 259 274 240 250 239 239 235 227 228 229 220
20 39 30 8 42 335 358 10 341 353 336 324 358 11 3 347 359 334 348 354 343 350 6 354 6 12 4 354 297 280 267 262 271 268 256 255 239 253 242 231 229 222 220
71 15 14 39 5 355 26 10 6 352 7 9 7 21 17 31 37 351 351 2 359 11 19 44 53 41 21 5 15 10 321 279 268 264 256 250 239 253 220 224 212 212 213
354 29 4 353 351 20 21 10 356 345 355 3 298 353 39 47 58 63 32 4 348 349 359 15 22 19 5 357 354 353 341 314 282 277 254 250 248 233 234 234 228 205 206
334 325 94 30 20 12 20 349 355 348 333 357 347 268 50 65 84 289 324 347 305 352 350 352 353 352 358 354 347 332 320 297 288 287 272 257 252 247 234 229 233 210 209
321 359 21 11 7 353 339 339 4 352 352 3 342 263 243 86 244 124 80 1 114 348 344 355 349 345 348 354 358 347 345 314 284 274 282 268 258 249 235 226 219 215 212
356 4 12 7 357 343 6 9 1 3 20 348 348 343 266 157 153 216 177 238 313 205 254 328 9 345 342 333 345 345 348 339 309 255 280 264 257 242 235 229 225 222 212
10 3 0 359 20 3 358 358 5 16 24 358 2 359 17 188 73 231 269 265 341 62 265 340 334 8 351 316 330 343 347 343 326 279 242 279 263 242 235 230 229 222 226
34 326 349 349 30 16 350 350 355 6 21 23 23 22 7 0 353 2 315 216 293 156 251 332 320 354 326 309 332 338 343 343 330 320 260 265 296 257 245 232 230 233 237
278 308 347 342 29 21 348 4 11 32 13 13 4 22 4 344 323 336 343 306 314 226 221 332 288 342 311 305 319 339 340 345 343 335 306 293 298 279 248 238 232 251 230
94 129 317 350 6 347 357 4 4 26 14 18 21 34 355 356 8 351 347 348 342 266 265 63 229 265 289 302 320 340 342 350 345 341 323 299 288 290 275 251 249 276 217
207 201 286 8 346 352 351 356 8 12 15 9 20 39 1 350 333 352 344 344 341 342 283 258 251 267 307 305 337 339 1 356 349 338 333 285 303 323 307 272 269 257 208
222 224 353 335 339 360 340 347 2 2 356 7 11 18 19 353 358 357 353 347 342 347 283 307 230 49 306 330 334 343 353 8 6 357 353 338 344 340 327 282 307 201 197
268 261 290 323 342 327 331 344 342 351 356 359 8 18 44 345 342 4 359 350 348 354 5 92 114 55 353 342 332 329 4 10 18 13 13 13 5 10 356 300 316 185 198
236 281 276 243 304 335 317 327 336 352 354 354 349 357 36 314 22 353 5 358 354 351 348 53 102 19 355 336 323 348 20 35 21 18 21 29 32 32 29 32 354 149 144
237 251 223 243 277 299 317 326 338 326 335 333 334 349 357 15 6 341 2 11 335 336 352 13 24 357 355 330 315 356 32 50 26 29 26 36 49 56 49 60 71 137 131
211 241 250 251 253 281 314 308 323 317 329 328 335 345 354 18 23 41 1 8 7 20 17 8 28 22 359 15 20 31 67 33 21 22 28 42 67 75 67 75 88 71 82
232 236 256 256 253 261 274 298 311 301 323 323 329 338 352 20 22 14 358 35 11 20 20 1 19 16 14 15 40 121 100 17 31 29 38 51 69 89 99 83 90 96 101
245 246 254 260 256 258 278 271 289 290 314 303 321 330 344 3 11 26 26 23 41 31 9 359 57 34 34 24 57 90 56 16 50 40 41 54 72 100 110 111 104 105 121
252 251 247 243 261 265 274 255 277 303 313 302 321 326 337 356 19 39 19 15 27 50 49 35 39 35 40 42 46 46 55 49 49 38 56 69 80 98 124 126 129 123 119
252 254 254 244 244 254 265 254 276 298 315 306 312 308 341 345 20 31 11 28 29 33 87 42 33 18 51 62 36 115 51 61 72 75 78 82 79 103 125 142 137 145 143
251 254 257 250 246 251 250 252 265 279 295 307 297 309 304 318 18 27 31 34 38 46 54 38 34 38 30 86 43 65 58 63 88 86 90 84 83 94 108 138 143 149 155
247 249 254 258 253 243 238 246 261 274 288 299 293 306 304 57 23 36 36 32 44 42 43 33 39 40 44 64 72 42 32 86 128 124 114 84 96 97 100 130 137 139 151
241 242 250 254 254 242 236 243 256 272 282 286 284 266 231 255 328 49 39 355 33 35 40 35 36 35 45 68 64 52 51 61 132 124 124 100 105 104 100 125 145 140 146
235 241 246 250 254 241 233 239 246 264 276 275 263 246 267 253 270 128 128 13 4 21 34 33 40 32 33 49 76 66 53 51 142 139 142 135 133 127 113 122 153 145 150
238 237 241 239 253 249 241 237 240 253 268 263 249 234 250 241 229 185 144 90 245 49 36 34 31 27 27 51 69 55 54 66 133 154 156 148 146 138 113 118 147 163 152